Glenwood Springs, CO (81601)

11:10 PM MDT on September 03, 2015 (GMT -0600)
Elk Springs | | Change Station
CLOSE
Current Station
Personal Weather Station
Location: Glenwood Springs, CO
Elevation: 6988 ft
Nearby Weather Stations

Elev 6988 ft 39.48 °N, 107.25 °W | Updated 5 minutes ago

Clear
Clear
54.5 °F
Feels Like 54.5 °F
N
4.2
Wind Variable Wind from ESE

Today
High -- | Low -- °F
--% Chance of Precip.
Yesterday
High -- | Low -- °F
Precip. -- in
6:39 AM 7:37 PM
Waning Gibbous, 63% visible
Pressure 29.87 in
Visibility 10.0 miles
Clouds Mostly Cloudy 9500 ft
Dew Point 49 °F
Humidity 83%
Rainfall 0.63 in
Snow Depth Not available.
UV 0 out of 12
Pollen 8.00 out of 12
Air Quality Not available.
Flu Activity Not available.
METAR KRIL 040453Z AUTO 14004KT 10SM BKN095 16/12 A3003 RMK AO2 SLP115 T01560117
Pressure 29.87 in
Visibility 10.0 miles
Clouds Mostly Cloudy 9500 ft
Dew Point 49 °F
Humidity 83%
Rainfall 0.63 in
Snow Depth Not available.
UV 0 out of 12
Pollen 8.00 out of 12
Air Quality Not available.
Flu Activity Not available.
METAR KRIL 040453Z AUTO 14004KT 10SM BKN095 16/12 A3003 RMK AO2 SLP115 T01560117

10-Day Weather Forecast

×

Almanac

Astronomy

Sep. 03, 2015 Rise Set
Actual Time
Civil Twilight
Nautical Twilight
Astronomical Twilight
Moon
Length of Visible Light
Length of Day
Tomorrow will be .
, % of the Moon is Illuminated

Today's Extremes

State Highs State Lows

Community

WunderPhotos

Upload Photos

1,852,129 photos uploaded!

WunderBlogs® & News

Nearby

Air Quality

  Air Quality AQ Index Pollutant
Not available.

Snow Depth

Station Depth Elevation

Earthquake Activity

City Distance Mag. Time & Date
Minimum magnitude displayed is 2.5.

Coastal Water Temperatures

Place Temperature

Stations

Nearby Weather Stations

Station Location Temp. Windchill Dew Point Humidity Wind Precip. Elev Updated Type